MONITOR-E/SL-19

Satellite information

Favourite Embed

Satellite Type and Status

PAYLOADIN ORBIT

Key statistics

Satellite MONITOR-E/SL-19 at a glance.

Uptime

8147

Days in orbit

Revolutions

≈ 14.4

Per day

Orbit

SSO

Sun Synchronous Orbit

Inclination

98.6

Latest

Satellite identification and parameters

Extended collection of information and parameters for MONITOR-E/SL-19.

Object identification

Identified? True

Debris? False

Object name: MONITOR-E/SL-19

International designator: 2003-031A

Object number (NORAD): 27840

Object ID (CCSDS): 27840

Country: COMMONWEALTH OF INDEPENDENT STATES (CIS)

Current information (Y/N): Y

RCS size: LARGE

Orbital parameters

Period: 100.018 minutes

Inclination: 98.6007 deg

SMA: 7137.513 km

Apoapsis: 828.423 km

Periapsis: 690.333 km

RAAN: 265.332 deg

Eccentricy: 0.00967356

Argument of periapsis: 342.2566 deg

Mean anomaly: 17.5251 deg

Mean motion: 14.39734379 rev/day

Mean motion (dot): 0.00000324 rev/day2

B* drag term: 0.00011243286 1/REarth

Two-line elements (TLE)

Creation date: Oct. 19, 2025, 2:20 a.m.

Reference frame: TEME

Reference center: EARTH

Epoch: Oct. 18, 2025, 10:17 p.m. UTC

TLE line 0: 0 MONITOR-E/SL-19

TLE line 1: 1 27840U 03031A 25291.92880779 .00000324 00000-0 11243-3 0 9990

TLE line 2: 2 27840 98.6007 265.3320 0096736 342.2566 17.5251 14.39734379171283

Live tracking on map

Real-time ground track for satellite MONITOR-E/SL-19.

In-orbit conjunctions

A list of the most updated potential collisions computed for object MONITOR-E/SL-19.

Target Orbit TCA Probability of collision Miss distance Type
METEOR 2-7 DEB LEO 2025-08-26 18:56:34 0.0009943243 493.0 (m) DEBRIS
NOAA 16 DEB SSO 2025-07-28 12:28:17 0.0001375561 631.0 (m) DEBRIS
THORAD AGENA D DEB SSO 2025-03-01 23:59:38 0.0001514995 140.0 (m) DEBRIS
COSMOS 2251 DEB LEO 2024-12-10 12:00:13 0.0002816259 217.0 (m) DEBRIS
SL-16 DEB LEO 2024-10-20 12:35:44 0.0003216103 188.0 (m) DEBRIS

Associated space launch

MIMOSA (Micro Measurements Of Satellite Acceleration) is a microsatellite to measure atmospheric drag.

MONITOR-E/SL-19 was lifted into orbit during the mission ‘Rokot / Briz-KM | Mimosa’, on board a Rokot/Briz-KM space rocket.

The launch took place on June 30, 2003, 2:15 p.m. from 133/3 (133L).

For more information about the launch, click the button.

Launch to space Rokot / Briz-KM | Mimosa
Rokot / Briz-KM | Mimosa

Agency: N/A

Status: Launch Successful

Launch date: June 30, 2003, 2:15 p.m. UTC

Rocket: Rokot/Briz-KM

Launch pad: 133/3 (133L)

Location: Plesetsk Cosmodrome, Russian Federation

...

Latest news about this satellite

There are no fresh news available about this satellite. Check back as we update our databases every day.


Newsletter sign-up

Weekly statistics, charts and insights to help you stay on top of the space industry.